Location: Rometta
(44.2000°N, 10.0500°E)
Time: 11:06:49
(UTC+00:00)

Meteor 2-13 Rocket - Pass Details

Date: 20 January 2021
Orbit: 936 x 958 km, 82.5° (Epoch: 07 March)

Event Time Altitude Azimuth Distance (km) Brightness Sun altitude
Rises 17:27:11 0° 173° (S) 3,598 7.6 -13.1°
Reaches altitude 10° 17:29:42 10° 169° (S) 2,660 6.8 -13.5°
Maximum altitude 17:35:37 57° 93° (E) 1,115 4.5 -14.6°
Drops below altitude 10° 17:41:37 10° 16° (NNE) 2,692 6.5 -15.6°
Sets 17:44:10 0° 13° (NNE) 3,645 7.2 -16.1°
